カタログに戻る

OPS 4682 DEB

運用中PO
NORAD 18271·DEBRIS·🇺🇸 United States

打ち上げ Apr 3, 1965 から Vandenberg Space Force Base

Loading…

次のパス (今後24時間)

TLE

最新Source: Space-Track

元期: Sep 14, 2026, 07:39 UTC

1 18271U 65027AA  26257.31892159  .00000787  00000-0  26732-2 0  9993
2 18271  90.2505   9.5101 0032163 238.2108 146.5538 12.97710907900955

AllMySatでOPS 4682 DEBをリアルタイム追跡

Download on the App Store